Weather History for KAXH - September, 2012

Change the Weather History Date:

Friday, September 7, 2012

  Actual Average (KHOU) Record (KHOU)
Temperature  
Mean Temperature 82 °F 82 °F  
Max Temperature 94 °F 92 °F 98 °F (1963)
Min Temperature 70 °F 72 °F 59 °F (1891)
Degree Days  
Heating Degree Days 0 0  
Month to date heating degree days 0  
Since 1 July heating degree days 0  
Cooling Degree Days 17 17  
Month to date cooling degree days 123  
Year to date cooling degree days 2505  
Growing Degree Days 32 (Base 50)    
Moisture  
Dew Point 73 °F    
Average Humidity 78    
Maximum Humidity 99    
Minimum Humidity 38    
Precipitation  
Precipitation 0.00 in 0.15 in 4.55 in (1913)
Month to date precipitation 1.00  
Year to date precipitation 32.87  
Sea Level Pressure  
Sea Level Pressure 29.88 in    
Wind  
Wind Speed 2 mph (SSW)    
Max Wind Speed 10 mph    
Max Gust Speed -    
Visibility 7 miles    
Events Fog    
T = Trace of Precipitation, MM = Missing Value Source: NWS Daily Summary

Daily Weather History Graph

Daily Weather History Graph

Search for Another Location

Airport or City:

Trip Planner

Search our weather history database for the weather conditions in past years. The results will help you decide how hot, cold, wet, or windy it might be!

Date:

Astronomy

Sep. 07, 2012 Rise Set
Actual Time 7:02 AM CDT 7:36 PM CDT
Civil Twilight 6:38 AM CDT 8:00 PM CDT
Nautical Twilight 6:10 AM CDT 8:28 PM CDT
Astronomical Twilight 5:41 AM CDT 8:56 PM CDT
Moon No Moon Rise 1:23 PM CDT (9/7)
Length of Visible Light 13h 21m
Length of Day
12h 33m
Waning Gibbous, 58% of the Moon is Illuminated
Sep 7
Waning Gibbous
Sep 8
Last Quarter
Sep 15
New
Sep 22
First Quarter
Sep 29
Full

Hourly Weather History & Observations

Time (CDT) Temp. Heat Index Dew Point Humidity Pressure Visibility Wind Dir Wind Speed Gust Speed Precip Events Conditions
12:15 AM 75.6 °F - 74.7 °F 97% 29.90 in 7.0 mi Calm Calm - N/A   Clear
12:35 AM 75.2 °F - 74.3 °F 97% 29.90 in 5.0 mi Calm Calm - N/A   Clear
12:55 AM 74.8 °F - 74.1 °F 98% 29.90 in 3.0 mi Calm Calm - N/A   Clear
1:15 AM 73.2 °F - 72.5 °F 98% 29.90 in 0.5 mi Calm Calm - N/A Fog Fog
1:35 AM 73.9 °F - 73.4 °F 98% 29.89 in 1.2 mi Calm Calm - N/A   Mist
1:55 AM 74.8 °F - 74.3 °F 98% 29.90 in 5.0 mi Calm Calm - N/A   Clear
2:15 AM 74.3 °F - 73.9 °F 99% 29.91 in 0.2 mi Calm Calm - N/A Fog Fog
2:35 AM 73.6 °F - 73.2 °F 99% 29.91 in 0.2 mi Calm Calm - N/A Fog Fog
2:55 AM 74.3 °F - 73.9 °F 99% 29.91 in 0.2 mi Calm Calm - N/A Fog Fog
3:15 AM 73.4 °F - 73.0 °F 99% 29.90 in 0.5 mi Calm Calm - N/A Fog Fog
3:35 AM 74.3 °F - 73.8 °F 98% 29.89 in 2.0 mi WSW 3.5 mph - N/A   Scattered Clouds
3:55 AM 73.4 °F - 73.2 °F 99% 29.89 in 1.2 mi Calm Calm - N/A   Mist
4:15 AM 73.8 °F - 73.4 °F 99% 29.89 in 0.5 mi Calm Calm - N/A Fog Fog
4:35 AM 73.0 °F - 72.7 °F 99% 29.89 in 2.0 mi Calm Calm - N/A   Scattered Clouds
4:55 AM 73.0 °F - 72.7 °F 99% 29.90 in 0.5 mi Calm Calm - N/A Fog Fog
5:15 AM 72.1 °F - 71.8 °F 99% 29.90 in 1.5 mi Calm Calm - N/A   Scattered Clouds
5:35 AM 73.0 °F - 72.7 °F 99% 29.90 in 1.5 mi Calm Calm - N/A   Scattered Clouds
5:55 AM 70.7 °F - 70.5 °F 99% 29.91 in 0.2 mi Calm Calm - N/A Fog Fog
6:15 AM 70.2 °F - 70.0 °F 99% 29.91 in 0.2 mi Calm Calm - N/A Fog Fog
6:35 AM 70.7 °F - 70.5 °F 99% 29.91 in 0.5 mi Calm Calm - N/A Fog Fog
6:55 AM 70.2 °F - 70.0 °F 99% 29.91 in 0.2 mi Calm Calm - N/A Fog Fog
7:15 AM 70.0 °F - 69.8 °F 99% 29.91 in 0.2 mi Calm Calm - N/A Fog Fog
7:35 AM 70.7 °F - 70.5 °F 99% 29.91 in 0.2 mi Calm Calm - N/A Fog Fog
7:55 AM 72.7 °F - 72.3 °F 99% 29.92 in 1.0 mi Calm Calm - N/A   Overcast
8:15 AM 75.4 °F - 75.0 °F 99% 29.92 in 3.0 mi Calm Calm - N/A   Scattered Clouds
8:35 AM 77.7 °F - 77.2 °F 98% 29.93 in 5.0 mi WSW 3.5 mph - N/A   Clear
8:55 AM 79.0 °F - 78.8 °F 99% 29.93 in 10.0 mi WSW 3.5 mph - N/A   Clear
9:15 AM 80.8 °F 89.1 °F 79.7 °F 96% 29.93 in 10.0 mi WSW 4.6 mph - N/A   Scattered Clouds
9:35 AM 83.7 °F 92.7 °F 76.5 °F 79% 29.93 in 10.0 mi West 5.8 mph - N/A   Scattered Clouds
9:55 AM 84.4 °F 93.5 °F 76.1 °F 76% 29.93 in 10.0 mi WSW 4.6 mph - N/A   Mostly Cloudy
10:15 AM 84.4 °F 93.5 °F 76.1 °F 76% 29.93 in 10.0 mi West 8.1 mph - N/A   Mostly Cloudy
10:35 AM 83.8 °F 92.1 °F 75.6 °F 76% 29.93 in 10.0 mi West 4.6 mph - N/A   Mostly Cloudy
10:55 AM 84.7 °F 92.8 °F 75.0 °F 72% 29.93 in 10.0 mi West 8.1 mph - N/A   Scattered Clouds
11:15 AM 86.5 °F 95.5 °F 74.7 °F 68% 29.93 in 10.0 mi West 5.8 mph - N/A   Scattered Clouds
11:35 AM 87.6 °F 96.2 °F 74.1 °F 64% 29.93 in 10.0 mi West 3.5 mph - N/A   Scattered Clouds
11:55 AM 88.7 °F 98.2 °F 74.5 °F 63% 29.93 in 10.0 mi WSW 4.6 mph - N/A   Scattered Clouds
12:15 PM 89.4 °F 98.3 °F 73.8 °F 60% 29.92 in 10.0 mi SW 4.6 mph - N/A   Mostly Cloudy
12:55 PM 91.6 °F 98.8 °F 71.6 °F 52% 29.91 in 10.0 mi SSW 5.8 mph - N/A   Scattered Clouds
1:15 PM 91.9 °F 99.0 °F 71.4 °F 51% 29.90 in 10.0 mi SSW 5.8 mph - N/A   Scattered Clouds
1:35 PM 92.3 °F 98.1 °F 70.2 °F 48% 29.89 in 10.0 mi SSW 5.8 mph - N/A   Clear
1:55 PM 92.3 °F 97.0 °F 69.1 °F 46% 29.88 in 10.0 mi SE 3.5 mph - N/A   Clear
2:15 PM 93.2 °F 99.4 °F 70.2 °F 47% 29.87 in 10.0 mi SSW 4.6 mph - N/A   Clear
2:35 PM 92.8 °F 97.6 °F 68.4 °F 45% 29.86 in 10.0 mi Calm Calm - N/A   Clear
2:55 PM 93.4 °F 97.0 °F 67.1 °F 42% 29.86 in 10.0 mi Calm Calm - N/A   Clear
3:15 PM 93.4 °F 98.1 °F 68.5 °F 44% 29.84 in 10.0 mi Calm Calm - N/A   Clear
3:35 PM 94.3 °F 98.7 °F 67.6 °F 42% 29.84 in 10.0 mi Calm Calm - N/A   Scattered Clouds
3:55 PM 94.6 °F 101.8 °F 70.9 °F 46% 29.83 in 10.0 mi South 5.8 mph - N/A   Scattered Clouds
4:15 PM 94.5 °F 101.4 °F 70.9 °F 46% 29.83 in 10.0 mi SE 6.9 mph - N/A   Mostly Cloudy
4:55 PM 93.6 °F 97.4 °F 67.3 °F 42% 29.82 in 10.0 mi Calm Calm - N/A   Clear
5:15 PM 93.7 °F 97.2 °F 66.6 °F 41% 29.82 in 10.0 mi SE 3.5 mph - N/A   Clear
5:35 PM 93.4 °F 95.2 °F 64.0 °F 38% 29.82 in 10.0 mi SSE 4.6 mph - N/A   Clear
5:55 PM 93.0 °F 95.5 °F 65.7 °F 40% 29.82 in 10.0 mi SE 4.6 mph - N/A   Clear
6:15 PM 91.8 °F 98.6 °F 71.4 °F 51% 29.81 in 10.0 mi SE 6.9 mph - N/A   Clear
6:35 PM 89.2 °F 99.5 °F 75.4 °F 63% 29.81 in 10.0 mi SE 10.4 mph - N/A   Clear
6:55 PM 87.6 °F 97.6 °F 75.4 °F 67% 29.81 in 10.0 mi SE 5.8 mph - N/A   Clear
7:15 PM 86.5 °F 95.5 °F 74.8 °F 68% 29.81 in 10.0 mi SSE 5.8 mph - N/A   Clear
7:35 PM 84.9 °F 93.3 °F 74.8 °F 72% 29.81 in 10.0 mi South 4.6 mph - N/A   Clear
7:55 PM 83.7 °F 90.4 °F 73.9 °F 72% 29.81 in 10.0 mi South 6.9 mph - N/A   Clear
8:15 PM 82.4 °F 88.4 °F 73.9 °F 75% 29.82 in 10.0 mi South 3.5 mph - N/A   Clear
8:35 PM 81.9 °F 87.5 °F 73.6 °F 76% 29.83 in 10.0 mi SSE 3.5 mph - N/A   Clear
8:55 PM 81.1 °F 86.4 °F 73.8 °F 78% 29.83 in 10.0 mi South 3.5 mph - N/A   Clear
9:15 PM 80.2 °F 84.9 °F 73.8 °F 81% 29.84 in 10.0 mi South 3.5 mph - N/A   Clear
11:15 PM 77.4 °F - 74.3 °F 90% 29.84 in 10.0 mi Calm Calm - N/A   Clear
11:35 PM 77.2 °F - 74.5 °F 91% 29.84 in 10.0 mi Calm Calm - N/A   Clear
11:55 PM 77.2 °F - 74.8 °F 92% 29.85 in 10.0 mi Calm Calm - N/A   Clear